This is the latest recevied weather packets stored in our database for station/object DH2PG-6. If no packets are shown the sender has not sent any weather packets the latest 10 day(s).
| Time | Temp. | Humidity | Pressure | Rain* | Wind** | Luminosity | Snow |
|---|---|---|---|---|---|---|---|
| 1777492966 | 11.11° C | 42% | 1020 hPa | 0 mm | - | - | - |
| 1777492666 | 11.11° C | 42% | 1019.9 hPa | 0 mm | - | - | - |
| 1777492365 | 11.11° C | 41% | 1019.9 hPa | 0 mm | - | - | - |
| 1777492065 | 11.11° C | 41% | 1019.9 hPa | 0 mm | - | - | - |
| 1777491765 | 11.67° C | 41% | 1019.8 hPa | 0 mm | - | - | - |
| 1777491464 | 11.67° C | 40% | 1019.8 hPa | 0 mm | - | - | - |
| 1777491164 | 11.67° C | 40% | 1019.7 hPa | 0 mm | - | - | - |
| 1777490263 | 12.22° C | 38% | 1019.6 hPa | 0 mm | - | - | - |
| 1777489963 | 12.78° C | 38% | 1019.5 hPa | 0 mm | - | - | - |
| 1777489663 | 12.78° C | 37% | 1019.4 hPa | 0 mm | - | - | - |
| 1777489362 | 13.33° C | 36% | 1019.4 hPa | 0 mm | - | - | - |
| 1777489062 | 13.89° C | 35% | 1019.5 hPa | 0 mm | - | - | - |
| 1777488762 | 15° C | 33% | 1019.5 hPa | 0 mm | - | - | - |
| 1777488461 | 16.11° C | 31% | 1019.4 hPa | 0 mm | - | - | - |
| 1777488161 | 17.22° C | 30% | 1019.3 hPa | 0 mm | - | - | - |
| 1777487861 | 18.33° C | 28% | 1019.2 hPa | 0 mm | - | - | - |
| 1777487561 | 19.44° C | 27% | 1019.3 hPa | 0 mm | - | - | - |
| 1777487261 | 20° C | 27% | 1019.3 hPa | 0 mm | - | - | - |
| 1777486660 | 21.11° C | 26% | 1019.1 hPa | 0 mm | - | - | - |
| 1777486360 | 21.67° C | 26% | 1019.1 hPa | 0 mm | - | - | - |
| 1777486059 | 21.67° C | 26% | 1019 hPa | 0 mm | - | - | - |
| 1777485759 | 22.22° C | 25% | 1018.9 hPa | 0 mm | - | - | - |
| 1777485459 | 22.78° C | 25% | 1018.9 hPa | 0 mm | - | - | - |
| 1777484858 | 23.89° C | 25% | 1018.9 hPa | 0 mm | - | - | - |
| 1777484558 | 23.89° C | 26% | 1018.8 hPa | 0 mm | - | - | - |
* Rain latest hour (hover to see other rain measurements)
** Current wind speed in m/s (hover to see current wind gust speed)